sat.trackr.live / text

‹ back to catalog

QIANFAN-173

NORAD 69390 · 2026-124J

PAYLOAD ACTIVE UNKNOWN

§ Identity

Operator
Country
PRC
Launch date
2026-06-04
Launch site
TAISC
Launch vehicle
Mass (kg)
RCS (m²)

External: N2YO · Heavens-Above · Gunter

§ Orbital elements

Epoch: 2026-09-20T04:33:13.968000Z

Period
106.59 min
Inclination
89.0061°
Eccentricity
0.0001625
Mean motion
13.51022702 rev/d
Perigee alt
1,067.3 km
Apogee alt
1,069.7 km
Semi-major
7,446.6 km
B*
1.3712e-4
RAAN
352.0215°
Arg perigee
103.8207°
Mean anomaly
256.3125°
Rev number
1,488

§ Raw data

QIANFAN-1731 69390U 26124J   26263.18974500  .00000101  00000+0  13712-3 0  99932 69390  89.0061 352.0215 0001625 103.8207 256.3125 13.51022702 14884

JSON: /api/v1/satellites/69390 · /tle

For live sub-satellite position, see the globe view (requires WebGL).

§ Visibility from observer

Set your observer location to see the next 7 days of passes ≥ 10°. The values pass through the URL so the page stays shareable.

No JS? Fill the form by hand. The geolocation button needs JavaScript.